Weather History for PAGK - March, 2013

Change the Weather History Date:

Sunday, March 31, 2013

  Actual Average Record
Temperature  
Mean Temperature 28 °F -  
Max Temperature 42 °F 34 °F 47 °F (1958)
Min Temperature 15 °F 10 °F -18 °F (1986)
Degree Days  
Heating Degree Days 36    
Moisture  
Dew Point 22 °F    
Average Humidity 74    
Maximum Humidity 92    
Minimum Humidity 42    
Precipitation  
Precipitation 0.01 in - - ()
Snow  
Snow 0.00 in - - ()
Snow Depth 8.00 in    
Sea Level Pressure  
Sea Level Pressure 30.21 in    
Wind  
Wind Speed 5 mph (WNW)    
Max Wind Speed 12 mph    
Max Gust Speed -    
Visibility 10 miles    
Events Snow    
Averages and records for this station are not official NWS values.
T = Trace of Precipitation, MM = Missing Value Source: NWS Daily Summary

Daily Weather History Graph

Daily Weather History Graph

Search for Another Location

Airport or City:

Trip Planner

Search our weather history database for the weather conditions in past years. The results will help you decide how hot, cold, wet, or windy it might be!

Date:

Astronomy

Mar. 31, 2013 Rise Set
Actual Time 7:05 AM AKDT 8:27 PM AKDT
Civil Twilight 6:19 AM AKDT 9:14 PM AKDT
Nautical Twilight 5:21 AM AKDT 10:13 PM AKDT
Astronomical Twilight 4:10 AM AKDT 11:25 PM AKDT
Moon 2:06 AM AKDT (3/31) 8:36 AM AKDT (3/31)
Length of Visible Light 14h 55m
Length of Day
13h 22m
Waning Gibbous, 76% of the Moon is Illuminated
Mar 31
Waning Gibbous
Apr 2
Last Quarter
Apr 10
New
Apr 18
First Quarter
Apr 25
Full

Hourly Weather History & Observations

Time (AKDT) Temp. Windchill Dew Point Humidity Pressure Visibility Wind Dir Wind Speed Gust Speed Precip Events Conditions
12:53 AM 30.9 °F 21.7 °F 23.0 °F 72% 30.25 in 10.0 mi SSE 11.5 mph - N/A   Scattered Clouds
1:53 AM 28.9 °F 22.8 °F 23.0 °F 78% 30.26 in 10.0 mi South 5.8 mph - N/A   Clear
2:53 AM 30.0 °F 25.2 °F 23.0 °F 75% 30.26 in 10.0 mi WSW 4.6 mph - N/A   Partly Cloudy
3:53 AM 24.1 °F 16.0 °F 19.0 °F 81% 30.27 in 10.0 mi WSW 6.9 mph - N/A   Clear
4:53 AM 19.9 °F - 16.0 °F 85% 30.29 in 10.0 mi Calm Calm - N/A   Mostly Cloudy
5:53 AM 18.0 °F - 15.1 °F 88% 30.29 in 10.0 mi Calm Calm - N/A   Overcast
5:58 AM 18.0 °F 12.7 °F 14.0 °F 84% 30.19 in 10.0 mi West 3.5 mph - N/A   Mostly Cloudy
6:53 AM 18.0 °F - 15.1 °F 88% 30.29 in 10.0 mi Calm Calm - N/A   Mostly Cloudy
7:53 AM 15.1 °F 7.7 °F 12.0 °F 88% 30.30 in 10.0 mi NNW 4.6 mph - N/A   Mostly Cloudy
8:53 AM 23.0 °F - 18.0 °F 81% 30.28 in 10.0 mi Calm Calm - N/A   Mostly Cloudy
9:53 AM 27.0 °F - 21.0 °F 78% 30.27 in 10.0 mi Calm Calm - N/A   Mostly Cloudy
10:53 AM 30.9 °F - 23.0 °F 72% 30.26 in 10.0 mi Calm Calm - N/A   Mostly Cloudy
11:53 AM 36.0 °F - 24.1 °F 62% 30.25 in 10.0 mi Calm Calm - N/A   Mostly Cloudy
12:53 PM 37.0 °F 32.4 °F 21.9 °F 54% 30.24 in 10.0 mi SSE 5.8 mph - N/A   Mostly Cloudy
1:53 PM 37.9 °F 30.5 °F 19.9 °F 48% 30.22 in 10.0 mi SSE 11.5 mph - N/A   Mostly Cloudy
2:53 PM 39.0 °F - 19.0 °F 45% 30.19 in 10.0 mi Calm Calm - N/A   Mostly Cloudy
3:53 PM 37.9 °F 30.9 °F 23.0 °F 55% 30.18 in 10.0 mi East 10.4 mph - N/A   Mostly Cloudy
4:53 PM 37.0 °F 33.3 °F 24.1 °F 59% 30.18 in 10.0 mi SE 4.6 mph - N/A   Overcast
5:53 PM 34.0 °F 28.0 °F 27.0 °F 75% 30.18 in 5.0 mi Variable 6.9 mph - 0.00 in Snow Light Snow
6:53 PM 34.0 °F 29.8 °F 27.0 °F 75% 30.16 in 7.0 mi ENE 4.6 mph - 0.01 in Snow Light Snow
7:53 PM 33.1 °F 25.5 °F 27.0 °F 78% 30.16 in 10.0 mi North 9.2 mph - 0.00 in   Overcast
8:53 PM 30.0 °F 23.2 °F 25.0 °F 82% 30.14 in 10.0 mi North 6.9 mph - N/A   Mostly Cloudy
9:26 PM 28.9 °F 22.8 °F 25.0 °F 85% 30.04 in 10.0 mi NW 5.8 mph - N/A   Mostly Cloudy
9:53 PM 28.0 °F 22.8 °F 25.0 °F 88% 30.13 in 10.0 mi WNW 4.6 mph - N/A   Overcast
10:53 PM 26.1 °F 19.4 °F 24.1 °F 92% 30.12 in 10.0 mi NW 5.8 mph - N/A   Partly Cloudy
11:53 PM 27.0 °F 23.0 °F 25.0 °F 92% 30.10 in 10.0 mi NNW 3.5 mph - N/A   Mostly Cloudy